Regional Weather Roundup
Issued by NWS Charleston, SC

Current Version | Previous Version | Graphics & Text | Print | Product List | Glossary On
Versions: 1 2 3 4 5 6 7 8 9 10 11 12 13 14 15 16 17 18 19 20 21 22 23 24 25 26 27 28 29 30 31 32 33 34 35 36 37 38 39 40 41 42 43 44 45 46 47 48 49 50
000
ASUS42 KCHS 181126
RWRCHS

REGIONAL WEATHER ROUNDUP
NATIONAL WEATHER SERVICE CHARLESTON SC
700 AM EDT SAT APR 18 2015

NOTE: "FAIR" INDICATES FEW OR NO CLOUDS BELOW 12,000 FEET WITH NO
SIGNIFICANT WEATHER AND/OR OBSTRUCTIONS TO VISIBILITY.

NOT ALL STATIONS ARE QUALITY CONTROLLED BY THE NATIONAL
WEATHER SERVICE. USE DATA WITH CAUTION...ESPECIALLY
DEWPOINT OBSERVATIONS.

SCZ027-030-031-034>040-042>050-181200-
...SOUTHEAST SOUTH CAROLINA...

CITY           SKY/WX    TMP DP  RH WIND       PRES   REMARKS
N CHARLESTON   CLOUDY    67  66  97 CALM      29.98R FOG
WATERFRONT PRK   N/A     66 N/A N/A W3          N/A
MOUNT PLEASANT CLOUDY    66  66 100 CALM      29.98R FOG
PINOPOLIS      NOT AVBL
MONCKS CORNER  LGT RAIN  68  66  94 CALM      29.98R
SUMMERVILLE    CLOUDY    64  64 100 CALM      29.99R FOG
BEAUFORT MCAS  CLOUDY    68  67  96 NE5       29.98R
BEAUFORT ARPT  CLOUDY    68  68 100 CALM      29.97R FOG
HILTON HEAD IS CLOUDY    68  66  94 CALM      29.98R FOG
WALTERBORO     DRIZZLE   64  64 100 CALM      30.00R
ALLENDALE      CLOUDY    66  66 100 CALM      29.98R FOG

...SOUTHERN MIDLANDS AND PEE DEE...

CITY           SKY/WX    TMP DP  RH WIND       PRES   REMARKS
GEORGETOWN     NOT AVBL
KINGSTREE      NOT AVBL
ORANGEBURG     RAIN      66  63  90 CALM      30.00R FOG
BARNWELL       CLOUDY    66  66 100 E3        29.99R
AIKEN          CLOUDY    48  46  93 NE3       30.02R FOG
MANNING        RAIN      63  63 100 CALM      29.99R
COLUMBIA       CLOUDY    66  63  90 CALM      29.98R FOG
SUMTER         MOCLDY    64  63  96 NE3       29.97R
FLORENCE       HVY RAIN  65  63  93 N3        30.00R FOG
MYRTLE BEACH   CLOUDY    66  64  94 N5        29.99R
N MYRTLE BEACH HVY RAIN  67  65  93 CALM      29.98R FOG

$$

GAZ063-065-086>088-099>101-113>116-118-119-134>141-150-181200-
...SOUTHEAST GEORGIA...

CITY           SKY/WX    TMP DP  RH WIND       PRES   REMARKS
SAVANNAH ARPT  CLOUDY    68  66  94 CALM      29.97R FOG
HUNTER AAF     CLOUDY    67  67 100 SE2       29.94S
FORT STEWART   CLOUDY    67  66  96 S3        29.95R
STATESBORO     RAIN      67  67 100 CALM      29.97S
SYLVANIA       FOG       67  67 100 CALM      29.99R VSB 1/2
CLAXTON        CLOUDY    66  66 100 CALM      29.97S FOG

...CSRA...CENTRAL AND FAR SOUTHEAST GEORGIA...

CITY           SKY/WX    TMP DP  RH WIND       PRES   REMARKS
THOMSON        CLOUDY    66  66 100 CALM      30.03S
AUGUSTA-BUSH   CLOUDY    65  64  97 N5        29.97R FOG
AUGUSTA-DANIEL LGT RAIN  66  64  93 E5        29.98R
SWAINSBORO     CLOUDY    68  68 100 SE5       29.98R
VIDALIA        RAIN      68  66  94 S3        29.97R
EASTMAN        CLOUDY    68  68 100 CALM      29.98S FOG
HAZLEHURST     CLOUDY    68  68 100 CALM      29.96R FOG
ALMA           CLOUDY    67  65  93 SE3       29.96R
WAYCROSS       CLOUDY    71  70  97 CALM      29.97R FOG
JESUP          CLOUDY    70  68  94 CALM      29.98R FOG
BAXLEY         CLOUDY    68  66  94 CALM      29.97R
BRUNSWICK      CLOUDY    68  64  88 CALM      29.98S
SAINT SIMONS   CLOUDY    67  66  97 SE3       29.98R

$$

SCZ027-028-034-036>038-045-046-048>050-GAZ119-141-181200-
...LAKE AND SUPPLEMENTAL COASTAL OBSERVATIONS...

STATION/POSITION TIME  TEMP    WIND        PRES    WAVE   SWELL
                       AIR SEA DIR/SP/G            HT/PER HT/PER/DIR
                 (UTC) (F)     (DEG/KT/KT) (MB)    (FT/S) (FT/S/D)
UPR LAKE MARION  NOT AVBL
WINYAH BAY       1000   67     320/  1     1013.0S
LAKE MURRAY      1000   64      CALM  /  1 1014.9S
ACE BASIN NERRS  NOT AVBL
FORT PULASKI     1100   67 71  130/  2/  3 1015.1R
SAPELO ISLAND    1100   67     130/  1     1015.0R

$$

ANZ835-935-AMZ111-154-330-350-352-354-370-450-454-472-181200-
...C-MAN AND BUOY OBSERVATIONS...

STATION/POSITION TIME  TEMP    WIND        PRES    WAVE   SWELL
                       AIR SEA DIR/SP/G            HT/PER HT/PER/DIR
                 (UTC) (F)     (DEG/KT/KT) (MB)    (FT/S) (FT/S/D)
BUOY 41004       1050   70 75  360/  8/ 10 1013.8R   4/ 8   3/ 8
BUOY 41008       1050   66 67  140/  4/  6 1014.7R   3/10   3/ 80/10
FOLLY BEACH CMAN 1100   66     320/  2/  3 1015.1R
CAPERS NEARSHORE NOT AVBL
FRIPP NEARSHORE  1000   67     100/  2/  4 1014.3R


STATION/POSITION TIME  TEMP    WIND        PRES    WAVE   SWELL
                       AIR SEA DIR/SP/G            HT/PER HT/PER/DIR
                 (UTC) (F)     (DEG/KT/KT) (MB)    (FT/S) (FT/S/D)
5E ST. MARYS GA  1021      70                N/A     3/ 8
FRYING PAN BUOY  1050   72 73   20/  4/  6 1014.5R   4/ 8   3/ 90/ 8
BUOY 41025       1050   70 75  360/  6/  8 1015.2R   5/ 8   5/110/ 8
CAPE LOOKOUT NC  1100   67      30/  3/  4 1015.2R
BUOY 41002       1050   72 73  210/  6/  8 1014.2R   6/ 8   5/ 90/ 8
BUOY 41010       1020   77 78  210/ 12/ 14 1014.6F
ST AUGUSTINE FL  1100   68 69  210/  2/  3 1015.3R


$$


USA.gov is the U.S. government's official web portal to all federal, state and local government web resources and services.